VK2HAR Weather Reports


time (UTC)temp
C
wind
direction
speed
KPH
gust
KPH
rain 1hr
cm
rain 24hr
cm
rain mn
cm
humidity
%
barometer
mb
20260510060903 22 50 3.2 4.8 0.00 0.00 0.00 57 1028.0
20260510060003 22 47 3.2 8.0 0.00 0.00 0.00 56 1028.0
20260510055403 22 44 1.6 4.8 0.00 0.00 0.00 56 1027.9
20260510054503 22 44 1.6 4.8 0.00 0.00 0.00 56 1027.8
20260510053603 22 45 4.8 8.0 0.00 0.00 0.00 56 1027.7
20260510052703 23 85 3.2 6.4 0.00 0.00 0.00 55 1027.6
20260510051803 22 85 3.2 9.7 0.00 0.00 0.00 55 1027.5
20260510050903 22 74 1.6 4.8 0.00 0.00 0.00 55 1027.5
20260510050003 22 104 3.2 6.4 0.00 0.00 0.00 56 1027.4
20260510045403 22 96 4.8 16.1 0.00 0.00 0.00 56 1027.4
20260510044503 22 92 8.0 16.1 0.00 0.00 0.00 56 1027.5
20260510043817 22 87 6.4 14.5 0.00 0.00 0.00 55 1027.4
20260510042917 22 88 4.8 11.3 0.00 0.00 0.00 57 1027.4
20260510041804 22 105 3.2 6.4 0.00 0.00 0.00 56 1027.4
20260510040903 22 136 4.8 12.9 0.00 0.00 0.00 56 1027.4
20260510040003 22 81 3.2 8.0 0.00 0.00 0.00 56 1027.5
20260510035403 22 72 4.8 12.9 0.00 0.00 0.00 57 1027.7
20260510034503 22 100 3.2 6.4 0.00 0.00 0.00 56 1027.6
20260510033817 22 99 3.2 6.4 0.00 0.00 0.00 56 1027.7
20260510032703 22 102 3.2 9.7 0.00 0.00 0.00 57 1027.7
20260510031803 22 84 4.8 12.9 0.00 0.00 0.00 59 1027.9
20260510030903 21 125 4.8 12.9 0.00 0.00 0.00 59 1027.8
20260510030218 22 111 4.8 11.3 0.00 0.00 0.00 58 1027.9
20260510025403 22 126 4.8 11.3 0.00 0.00 0.00 58 1027.9
20260510024503 21 147 3.2 8.0 0.00 0.00 0.00 59 1028.0
20260510023603 21 151 3.2 8.0 0.00 0.00 0.00 59 1028.0
20260510022703 21 112 3.2 11.3 0.00 0.00 0.00 60 1028.1
20260510021803 21 123 3.2 11.3 0.00 0.00 0.00 61 1028.2
20260510021119 20 132 3.2 11.3 0.00 0.00 0.00 61 1028.4
20260510020218 20 120 3.2 11.3 0.00 0.00 0.00 61 1028.5
20260510015403 20 85 4.8 8.0 0.00 0.00 0.00 62 1028.6
20260510014503 20 148 1.6 6.4 0.00 0.00 0.00 63 1028.6
20260510013603 19 150 3.2 8.0 0.00 0.00 0.00 64 1028.8
20260510012703 19 144 3.2 6.4 0.00 0.00 0.00 65 1028.9
20260510012019 19 138 1.6 6.4 0.00 0.00 0.00 64 1028.9
20260510010903 18 132 3.2 9.7 0.00 0.00 0.00 67 1029.0
20260510010004 18 120 4.8 8.0 0.00 0.00 0.00 65 1029.1
20260510005403 18 102 3.2 9.7 0.00 0.00 0.00 68 1029.1
20260510004503 17 91 3.2 9.7 0.00 0.00 0.00 70 1029.3
20260510003603 17 82 4.8 8.0 0.00 0.00 0.00 72 1029.4
20260510002703 16 68 3.2 8.0 0.00 0.00 0.00 75 1029.4
20260510001803 15 72 4.8 8.0 0.00 0.00 0.00 78 1029.3
20260510000903 15 82 3.2 6.4 0.00 0.00 0.00 78 1029.3
20260510000004 15 83 3.2 6.4 0.00 0.00 0.00 78 1029.2
20260509235403 14 83 3.2 6.4 0.00 0.00 0.00 80 1029.2
20260509234716 14 87 3.2 8.0 0.00 0.00 0.00 79 1029.2
20260509233603 13 97 3.2 6.4 0.00 0.00 0.00 81 1029.1
20260509232703 13 97 4.8 9.7 0.00 0.00 0.00 83 1029.2
20260509231803 12 97 3.2 9.7 0.00 0.00 0.00 83 1029.3
20260509231118 12 98 3.2 6.4 0.00 0.00 0.00 83 1029.2
20260509230003 12 100 4.8 6.4 0.00 0.00 0.00 85 1029.3
20260509225616 12 104 4.8 6.4 0.00 0.00 0.00 85 1029.3
20260509224503 11 109 3.2 6.4 0.00 0.00 0.00 87 1029.3
20260509223603 11 109 3.2 6.4 0.00 0.00 0.00 88 1029.2
20260509222703 11 109 3.2 6.4 0.00 0.00 0.00 90 1029.2
20260509221803 10 0 0.0 0.0 0.00 0.00 0.00 92 1029.1
20260509220903 10 109 1.6 3.2 0.00 0.00 0.00 94 1029.1
20260509220003 8 109 0.0 3.2 0.00 0.00 0.00 95 1029.1
20260509215616 8 0 0.0 0.0 0.00 0.00 0.00 95 1029.1
20260509214503 7 0 0.0 0.0 0.00 0.00 0.00 95 1028.8
20260509213603 7 0 0.0 0.0 0.00 0.00 0.00 95 1028.8
20260509212703 7 0 0.0 0.0 0.00 0.00 0.00 94 1028.6
20260509212017 7 0 0.0 0.0 0.00 0.00 0.00 94 1028.6
20260509210903 7 0 0.0 0.0 0.00 0.00 0.00 94 1028.5
20260509210003 7 0 0.0 0.0 0.00 0.00 0.00 94 1028.4
20260509205403 7 0 0.0 0.0 0.00 0.00 0.00 94 1028.3
20260509204503 7 260 0.0 1.6 0.00 0.00 0.00 94 1028.2
20260509203603 7 0 0.0 0.0 0.00 0.00 0.00 95 1028.1
20260509202703 7 0 0.0 0.0 0.00 0.00 0.00 94 1028.0
20260509201803 6 0 0.0 0.0 0.00 0.00 0.00 94 1028.0
20260509200903 7 0 0.0 0.0 0.00 0.00 0.00 94 1027.8
20260509200216 7 0 0.0 0.0 0.00 0.00 0.00 94 1027.8
20260509195403 7 0 0.0 0.0 0.00 0.00 0.00 94 1027.7
20260509194719 7 0 0.0 0.0 0.00 0.00 0.00 94 1027.6
20260509193603 7 0 0.0 0.0 0.00 0.00 0.00 94 1027.4
20260509192703 7 0 0.0 0.0 0.00 0.00 0.00 94 1027.4
20260509191803 7 0 0.0 0.0 0.00 0.00 0.00 94 1027.2
20260509191116 7 0 0.0 0.0 0.00 0.00 0.00 94 1027.2
20260509190003 7 0 0.0 0.0 0.00 0.00 0.00 93 1027.2
20260509185403 7 0 0.0 0.0 0.00 0.00 0.00 93 1027.2
20260509184503 7 0 0.0 0.0 0.00 0.00 0.00 93 1027.0
20260509183603 7 0 0.0 0.0 0.00 0.00 0.00 94 1026.9
20260509182703 7 0 0.0 0.0 0.00 0.00 0.00 94 1026.8
20260509181803 7 0 0.0 0.0 0.00 0.00 0.00 93 1026.7
20260509180903 7 0 0.0 0.0 0.00 0.00 0.00 93 1026.6
20260509180003 7 0 0.0 0.0 0.00 0.00 0.00 93 1026.4
20260509175403 7 0 0.0 0.0 0.00 0.00 0.00 93 1026.5
20260509174503 7 0 0.0 0.0 0.00 0.00 0.00 93 1026.3
20260509173603 7 0 0.0 0.0 0.00 0.00 0.00 93 1026.3
20260509172703 8 0 0.0 0.0 0.00 0.00 0.00 93 1026.3
20260509171803 8 0 0.0 0.0 0.00 0.00 0.00 93 1026.3
20260509170903 8 0 0.0 0.0 0.00 0.00 0.00 93 1026.3
20260509170219 8 140 0.0 3.2 0.00 0.00 0.00 93 1026.3
20260509165618 8 140 0.0 3.2 0.00 0.00 0.00 93 1026.3
20260509164503 8 140 1.6 3.2 0.00 0.00 0.00 92 1026.3
20260509163603 8 0 0.0 0.0 0.00 0.00 0.00 92 1026.3
20260509162703 8 140 0.0 1.6 0.00 0.00 0.00 92 1026.4
20260509161803 8 140 0.0 3.2 0.00 0.00 0.00 93 1026.4
20260509160903 8 140 0.0 3.2 0.00 0.00 0.00 92 1026.5
20260509160003 8 140 0.0 3.2 0.00 0.00 0.00 92 1026.5
20260509155403 8 140 0.0 3.2 0.00 0.00 0.00 91 1026.5
20260509154503 8 0 0.0 0.0 0.00 0.00 0.00 91 1026.4
20260509153603 8 0 0.0 0.0 0.00 0.00 0.00 90 1026.5
20260509152703 8 0 0.0 0.0 0.00 0.00 0.00 90 1026.4
20260509151803 8 0 0.0 0.0 0.00 0.00 0.00 90 1026.6
20260509151118 8 0 0.0 0.0 0.00 0.00 0.00 90 1026.6
20260509150003 9 0 0.0 0.0 0.00 0.00 0.00 90 1026.6
20260509145403 9 0 0.0 0.0 0.00 0.00 0.00 90 1026.6
20260509144503 9 0 0.0 0.0 0.00 0.00 0.00 89 1026.6
20260509143603 9 0 0.0 0.0 0.00 0.00 0.00 89 1026.5
20260509142703 10 0 0.0 0.0 0.00 0.00 0.00 88 1026.5
20260509141803 10 0 0.0 0.0 0.00 0.00 0.00 88 1026.4
20260509140903 10 0 0.0 0.0 0.00 0.00 0.00 89 1026.4
20260509140005 10 0 0.0 0.0 0.00 0.00 0.00 89 1026.3
20260509135403 10 0 0.0 0.0 0.00 0.00 0.00 89 1026.4
20260509134717 10 140 0.0 3.2 0.00 0.00 0.00 88 1026.4
20260509133816 10 140 0.0 3.2 0.00 0.00 0.00 88 1026.4
20260509132919 11 0 0.0 0.0 0.00 0.00 0.00 88 1026.4
20260509131803 11 0 0.0 0.0 0.00 0.00 0.00 89 1026.4
20260509131118 11 0 0.0 0.0 0.00 0.00 0.00 89 1026.3
20260509130003 11 140 0.0 3.2 0.00 0.00 0.00 89 1026.3
20260509125403 11 140 0.0 3.2 0.00 0.00 0.00 89 1026.2
20260509124503 11 140 1.6 3.2 0.00 0.00 0.00 89 1026.3
20260509123819 11 140 0.0 3.2 0.00 0.00 0.00 89 1026.4
20260509122703 11 140 0.0 1.6 0.00 0.00 0.00 89 1026.5
20260509121803 11 0 0.0 0.0 0.00 0.00 0.00 89 1026.4
20260509120903 11 0 0.0 0.0 0.00 0.00 0.00 88 1026.5
20260509120003 11 0 0.0 0.0 0.00 0.00 0.00 88 1026.6
20260509115403 11 140 0.0 3.2 0.00 0.00 0.00 88 1026.6
20260509114503 11 140 1.6 3.2 0.00 0.00 0.00 88 1026.7
20260509113603 11 0 0.0 0.0 0.00 0.00 0.00 87 1026.7
20260509112703 11 140 0.0 3.2 0.00 0.00 0.00 87 1026.8
20260509112018 11 140 1.6 3.2 0.00 0.00 0.00 87 1026.7
20260509110903 11 140 0.0 3.2 0.00 0.00 0.00 86 1026.7
20260509110003 11 0 0.0 0.0 0.00 0.00 0.00 86 1026.5
20260509105616 11 0 0.0 0.0 0.00 0.00 0.00 86 1026.6
20260509104503 11 140 0.0 4.8 0.00 0.00 0.00 86 1026.6
20260509103603 11 140 1.6 3.2 0.00 0.00 0.00 85 1026.5
20260509102703 11 140 0.0 3.2 0.00 0.00 0.00 85 1026.5
20260509101803 12 0 0.0 0.0 0.00 0.00 0.00 85 1026.3
20260509100903 12 140 0.0 3.2 0.00 0.00 0.00 84 1026.3
20260509100004 12 140 1.6 3.2 0.00 0.00 0.00 84 1026.2
20260509095403 12 140 1.6 4.8 0.00 0.00 0.00 84 1026.1
20260509094503 12 140 1.6 4.8 0.00 0.00 0.00 84 1026.0
20260509093603 12 0 0.0 0.0 0.00 0.00 0.00 84 1025.9
20260509092703 12 140 0.0 3.2 0.00 0.00 0.00 83 1026.0
20260509092017 12 140 1.6 4.8 0.00 0.00 0.00 83 1025.9
20260509090903 13 140 0.0 4.8 0.00 0.00 0.00 82 1025.8
20260509090003 13 140 1.6 4.8 0.00 0.00 0.00 81 1025.6
20260509085619 13 140 1.6 4.8 0.00 0.00 0.00 81 1025.5
20260509084503 14 140 0.0 3.2 0.00 0.00 0.00 78 1025.4
20260509083603 15 0 0.0 0.0 0.00 0.00 0.00 77 1025.3
20260509082917 15 0 0.0 0.0 0.00 0.00 0.00 76 1025.2
20260509081803 15 140 0.0 3.2 0.00 0.00 0.00 75 1025.0
20260509080903 15 140 0.0 3.2 0.00 0.00 0.00 75 1024.7
20260509080003 16 143 3.2 16.1 0.00 0.00 0.00 74 1024.5
20260509075403 16 221 3.2 16.1 0.00 0.00 0.00 75 1024.4
20260509074503 16 277 3.2 4.8 0.00 0.00 0.00 72 1024.0
20260509073603 17 277 1.6 3.2 0.00 0.00 0.00 69 1023.9
20260509072703 17 277 1.6 4.8 0.00 0.00 0.00 67 1023.9
20260509071803 18 277 0.0 3.2 0.00 0.00 0.00 64 1023.8
20260509070903 19 277 1.6 4.8 0.00 0.00 0.00 60 1023.7
20260509070003 20 0 0.0 0.0 0.00 0.00 0.00 55 1023.6
20260509065403 20 0 0.0 0.0 0.00 0.00 0.00 54 1023.6
20260509064503 21 0 0.0 0.0 0.00 0.00 0.00 53 1023.5
20260509063603 21 100 0.0 3.2 0.00 0.00 0.00 53 1023.4
20260509062703 21 100 1.6 3.2 0.00 0.00 0.00 50 1023.3
20260509061803 21 100 1.6 4.8 0.00 0.00 0.00 50 1023.2